星链-4648 (STARLINK-4648 )

导读

STARLINK-4648是美国于2022年8月28日发射的星链卫星,属于SpaceX星链互联网星座计划的组成部分。星链项目旨在构建全球卫星互联网,该卫星承担低轨信号覆盖与网络传输任务,在为偏远地区提供宽带接入、补充全球网络覆盖等方面发挥作用,推进了全球卫星互联网络的组网进程。

Basic Information
目录编号:
53602
目录名称:
STARLINK-4648
国际标识:
2022-104Q
轨道中心:
EARTH
卫星名称:
星链-4648
卫星全名:
星链-4648 (STARLINK-4648 )
卫星状态:
在轨 (已飞行1389 天)
发射日期:
2022-08-28 UTC
国别 :
美国 (US)
星等 :
--
Orbit Information
数据来源 国际轨道数据 AOE轨道数据
星历时间 2026-06-17T10:24:47+0800
7小时前
查看轨道信息
2026-06-16T00:00:00+0800
1天前
查看轨道信息
半长轴 6917.895km 6917.901km
偏心率 0.0001322 0.0001322
轨道倾角 53.160° 53.156°
近地点辐角 87.176° 77.355°
升交点赤经 152.693° 159.141°
平近点角 272.938° 49.935°
近地点 538.843km 538.849km
远地点 540.673km 540.679km
周期 95.438分钟 95.438分钟
每日圈数 15.088354 15.088335
Detailed Information
固有亮度:
5
最大亮度:
2.5
卫星平台:
Starlink v1.5
覆盖范围:
全球
运营商:
太空探索技术公司
运营商所在国:
美国
制造商(研发单位):
太空探索技术公司
制造商所在国:
美国
使用方式:
暂无
Satellite Introduction
星链(Starlink)计划是由太空探索技术公司(SpaceX)提出的一个巨型低轨卫星互联网星座项目,计划在2019年至2024年间在太空搭建由约1.2万颗卫星组成的“星链”网络,其中1584颗将部署在地球上空550千米处的近地轨道,并从2020年开始工作。该卫星仍在工作。
2D Orbit Map
3D Orbit Map
Orbit Altitude Analysis Chart
Orbit Inclination Analysis Chart
Orbit Comprehensive Analysis Chart
View Comprehensive Chart